This demonstration page uses our WeatherBlox Daily Observations layout. Learn more.

Left ArrowRight Arrow

53.62937, 11.41316

Hourly Observations for November 14, 2019

Temp ( °F °C ) Dew Point ( °F °C ) Humidity (%) Winds ( mph kmh ) Pressure ( in mb ) Visibility ( mi km ) Precip ( " mm )
5:50 am 05:50 Mostly Clear with Mist and Fog 36 2 36 2 100 100 S 5 7 29.65 1004 3 5 N/A
6:20 am 06:20 Mostly Clear 36 2 36 2 100 100 S 5 7 29.65 1004 4 6 N/A
6:50 am 06:50 Mostly Clear 36 2 34 1 93 93 VRB 2 4 29.65 1004 4 6 N/A
7:20 am 07:20 Mostly Clear 36 2 9 -13 32 32 SSE 5 7 29.68 1005 4 6 N/A
7:50 am 07:50 Mostly Sunny 36 2 34 1 93 93 SSE 5 7 29.68 1005 4 6 N/A
8:20 am 08:20 Partly Cloudy with Mist and Fog 36 2 34 1 93 93 SSE 5 7 29.71 1006 3 5 N/A
8:50 am 08:50 Partly Cloudy with Mist and Fog 36 2 36 2 100 100 SSE 5 7 29.71 1006 3 5 N/A
9:20 am 09:20 Partly Cloudy with Mist and Fog 37 3 36 2 93 93 SSE 3 6 29.74 1007 3 5 N/A
9:50 am 09:50 Mostly Sunny 39 4 37 3 93 93 SSE 6 9 29.74 1007 4 7 N/A
10:20 am 10:20 Mostly Sunny 41 5 37 3 87 87 SSE 6 9 29.74 1007 6 9 N/A
10:50 am 10:50 Mostly Sunny 41 5 37 3 87 87 SE 7 11 29.77 1008 7 11 N/A
11:20 am 11:20 Mostly Sunny 43 6 37 3 81 81 SSE 5 7 29.77 1008 7 11 N/A
11:50 am 11:50 Mostly Sunny 45 7 37 3 76 76 SE 3 6 29.77 1008 7 11 N/A
12:20 pm 12:20 Mostly Sunny 45 7 39 4 81 81 SSE 5 7 29.77 1008 7 11 N/A
12:50 pm 12:50 Mostly Sunny 46 8 39 4 76 76 SE 5 7 29.77 1008 7 11 N/A
1:20 pm 13:20 Mostly Sunny 46 8 37 3 71 71 SE 5 7 29.77 1008 7 11 N/A
1:50 pm 13:50 Mostly Sunny 45 7 37 3 76 76 ESE 6 9 29.77 1008 7 11 N/A
2:20 pm 14:20 Mostly Sunny 46 8 39 4 76 76 E 6 9 29.77 1008 7 11 N/A
2:50 pm 14:50 Mostly Sunny 45 7 39 4 81 81 E 6 9 29.77 1008 7 11 N/A
3:20 pm 15:20 Mostly Sunny 45 7 37 3 76 76 E 7 11 29.77 1008 7 11 N/A
3:50 pm 15:50 Mostly Sunny 43 6 37 3 81 81 E 6 9 29.80 1009 7 11 N/A
4:20 pm 16:20 Mostly Sunny 43 6 37 3 81 81 E 7 11 29.80 1009 7 11 N/A
4:50 pm 16:50 Mostly Clear 41 5 37 3 87 87 E 5 7 29.80 1009 7 11 N/A
5:20 pm 17:20 Mostly Clear 39 4 36 2 87 87 E 5 7 29.80 1009 7 11 N/A
5:50 pm 17:50 Mostly Clear 41 5 36 2 81 81 ESE 3 6 29.83 1010 7 11 N/A
6:20 pm 18:20 Mostly Clear 39 4 36 2 87 87 E 6 9 29.83 1010 7 11 N/A
6:50 pm 18:50 Mostly Clear 41 5 36 2 81 81 ESE 6 9 29.83 1010 7 11 N/A
7:20 pm 19:20 Mostly Clear 39 4 34 1 81 81 E 5 7 29.83 1010 7 11 N/A
7:50 pm 19:50 Mostly Clear 39 4 36 2 87 87 E 6 9 29.86 1011 7 11 N/A

Powered by AerisWeather